GW4719 Weather Reports


time (UTC)temp
C
wind
direction
speed
KPH
gust
KPH
rain 1hr
cm
rain 24hr
cm
rain mn
cm
humidity
%
barometer
mb
20260508023258 12 267 8.0 11.3 0.00 0.00 0.00 45 1015.1
20260508022754 11 272 14.5 22.5 0.00 0.00 0.00 44 1014.8
20260508022251 11 304 1.6 4.8 0.00 0.00 0.00 45 1014.8
20260508021748 11 298 3.2 4.8 0.00 0.00 0.00 46 1015.0
20260508021243 12 305 3.2 14.5 0.00 0.00 0.00 45 1014.8
20260508020741 12 276 4.8 9.7 0.00 0.00 0.00 45 1014.6
20260508020238 12 308 6.4 11.3 0.00 0.00 0.00 45 1014.7
20260508015735 12 302 6.4 11.3 0.00 0.00 0.00 45 1014.6
20260508015232 12 287 1.6 1.6 0.00 0.00 0.00 45 1014.6
20260508014729 12 274 6.4 9.7 0.00 0.00 0.00 45 1014.8
20260508014226 12 262 1.6 6.4 0.00 0.00 0.00 44 1014.6
20260508013721 12 290 4.8 4.8 0.00 0.00 0.00 44 1014.4
20260508013218 12 290 4.8 4.8 0.00 0.00 0.00 44 1014.6
20260508012716 12 233 6.4 11.3 0.00 0.00 0.00 44 1014.4
20260508012212 12 261 3.2 6.4 0.00 0.00 0.00 44 1014.3
20260508011711 12 276 4.8 4.8 0.00 0.00 0.00 44 1014.1
20260508011208 12 276 4.8 6.4 0.00 0.00 0.00 43 1014.3
20260508010704 13 237 6.4 9.7 0.00 0.00 0.00 43 1014.0
20260508010202 13 252 4.8 11.3 0.00 0.00 0.00 43 1014.0
20260508005659 13 251 4.8 6.4 0.00 0.00 0.00 43 1014.0
20260508005156 13 252 8.0 14.5 0.00 0.00 0.00 43 1013.7
20260508004651 13 263 1.6 3.2 0.00 0.00 0.00 44 1013.7
20260508004148 13 268 1.6 1.6 0.00 0.00 0.00 43 1013.7
20260508003645 13 268 0.0 1.6 0.00 0.00 0.00 43 1013.8
20260508003142 13 268 1.6 6.4 0.00 0.00 0.00 42 1013.6
20260508002633 13 329 8.0 9.7 0.00 0.00 0.00 42 1013.7
20260508002131 13 321 4.8 17.7 0.00 0.00 0.00 42 1013.5
20260508001625 13 313 0.0 1.6 0.00 0.00 0.00 42 1013.5
20260508001122 13 314 6.4 9.7 0.00 0.00 0.00 42 1013.4
20260508000617 13 310 3.2 14.5 0.00 0.00 0.00 41 1013.5
20260508000115 14 291 4.8 17.7 0.00 0.00 0.00 41 1013.3
20260507235612 14 295 12.9 14.5 0.00 0.00 0.00 41 1013.2
20260507235109 14 280 4.8 4.8 0.00 0.00 0.00 42 1013.1
20260507234606 14 299 4.8 11.3 0.00 0.00 0.00 41 1013.1
20260507234102 14 306 8.0 9.7 0.00 0.00 0.00 41 1013.0
20260507233559 15 291 4.8 6.4 0.00 0.00 0.00 40 1013.0
20260507233058 15 341 6.4 12.9 0.00 0.00 0.00 40 1012.7
20260507232553 15 322 4.8 11.3 0.00 0.00 0.00 39 1012.7
20260507232051 15 350 4.8 14.5 0.00 0.00 0.00 39 1012.9
20260507231547 15 305 9.7 11.3 0.00 0.00 0.00 40 1013.0
20260507231045 15 318 6.4 6.4 0.00 0.00 0.00 40 1012.5
20260507230541 16 294 6.4 16.1 0.00 0.00 0.00 39 1012.6
20260507230038 16 333 4.8 9.7 0.00 0.00 0.00 38 1012.3
20260507225533 17 327 6.4 9.7 0.00 0.00 0.00 38 1012.2
20260507225029 16 333 4.8 6.4 0.00 0.00 0.00 39 1012.4
20260507224525 17 348 3.2 6.4 0.00 0.00 0.00 40 1012.3
20260507224022 17 286 9.7 17.7 0.00 0.00 0.00 37 1012.2
20260507223518 18 298 8.0 11.3 0.00 0.00 0.00 35 1012.1
20260507223016 18 298 8.0 11.3 0.00 0.00 0.00 35 1012.0
20260507222513 18 243 6.4 11.3 0.00 0.00 0.00 35 1011.9
20260507222008 18 267 6.4 16.1 0.00 0.00 0.00 34 1011.6
20260507221505 18 311 6.4 12.9 0.00 0.00 0.00 36 1011.6
20260507221002 18 327 3.2 14.5 0.00 0.00 0.00 35 1011.6
20260507220459 17 268 6.4 14.5 0.00 0.00 0.00 36 1011.9
20260507215956 18 307 6.4 14.5 0.00 0.00 0.00 37 1011.5
20260507215452 17 265 9.7 20.9 0.00 0.00 0.00 39 1011.5
20260507214950 17 336 11.3 12.9 0.00 0.00 0.00 37 1011.2
20260507214447 18 348 3.2 9.7 0.00 0.00 0.00 37 1011.2
20260507213943 18 327 4.8 9.7 0.00 0.00 0.00 37 1011.3
20260507213440 18 273 8.0 12.9 0.00 0.00 0.00 37 1011.2
20260507212937 17 288 4.8 11.3 0.00 0.00 0.00 39 1011.5
20260507212432 17 345 6.4 11.3 0.00 0.00 0.00 39 1011.1
20260507211930 18 298 9.7 12.9 0.00 0.00 0.00 37 1011.3
20260507211426 18 313 9.7 17.7 0.00 0.00 0.00 37 1011.2
20260507210923 18 278 11.3 16.1 0.00 0.00 0.00 37 1010.9
20260507210420 18 350 3.2 6.4 0.00 0.00 0.00 37 1010.9
20260507205916 18 337 4.8 9.7 0.00 0.00 0.00 38 1010.9
20260507205414 18 320 9.7 11.3 0.00 0.00 0.00 39 1011.2
20260507204910 18 323 1.6 11.3 0.00 0.00 0.00 39 1011.4
20260507204406 18 10 8.0 11.3 0.00 0.00 0.00 39 1011.1
20260507203904 18 341 6.4 11.3 0.00 0.00 0.00 38 1010.9
20260507203402 18 326 6.4 17.7 0.00 0.00 0.00 39 1010.9
20260507202858 18 316 4.8 14.5 0.00 0.00 0.00 37 1011.1
20260507202354 18 295 8.0 12.9 0.00 0.00 0.00 40 1011.0
20260507201850 18 5 6.4 14.5 0.00 0.00 0.00 41 1011.0
20260507201346 18 309 8.0 14.5 0.00 0.00 0.00 40 1011.1
20260507200842 18 305 9.7 25.7 0.00 0.00 0.00 39 1011.0
20260507200338 18 275 6.4 12.9 0.00 0.00 0.00 39 1011.0
20260507195834 19 345 9.7 12.9 0.00 0.00 0.00 38 1011.0
20260507195332 18 328 1.6 11.3 0.00 0.00 0.00 37 1011.0
20260507194829 19 298 8.0 14.5 0.00 0.00 0.00 39 1011.0
20260507194325 18 354 4.8 6.4 0.00 0.00 0.00 40 1011.2
20260507193822 18 349 8.0 11.3 0.00 0.00 0.00 39 1011.2
20260507193319 17 345 6.4 9.7 0.00 0.00 0.00 43 1011.3
20260507192814 18 272 4.8 9.7 0.00 0.00 0.00 40 1011.2
20260507192312 18 331 8.0 14.5 0.00 0.00 0.00 40 1011.4
20260507191808 18 308 4.8 14.5 0.00 0.00 0.00 43 1011.1
20260507191304 18 351 8.0 12.9 0.00 0.00 0.00 41 1011.4
20260507190801 17 328 3.2 11.3 0.00 0.00 0.00 42 1011.5
20260507190300 17 270 6.4 12.9 0.00 0.00 0.00 43 1011.4
20260507185758 17 306 6.4 14.5 0.00 0.00 0.00 44 1011.4
20260507185254 18 276 6.4 6.4 0.00 0.00 0.00 42 1011.6
20260507184752 18 222 4.8 11.3 0.00 0.00 0.00 39 1011.7
20260507184250 19 304 1.6 4.8 0.00 0.00 0.00 41 1011.5
20260507183747 20 307 4.8 9.7 0.00 0.00 0.00 42 1011.6
20260507183244 20 238 4.8 14.5 0.00 0.00 0.00 40 1011.8
20260507182742 20 240 4.8 6.4 0.00 0.00 0.00 41 1011.6
20260507182241 19 233 1.6 9.7 0.00 0.00 0.00 44 1011.7
20260507181739 19 269 8.0 12.9 0.00 0.00 0.00 43 1011.5
20260507181235 18 252 9.7 16.1 0.00 0.00 0.00 43 1011.6
20260507180732 18 254 9.7 11.3 0.00 0.00 0.00 45 1011.5
20260507180229 18 306 8.0 11.3 0.00 0.00 0.00 46 1011.8
20260507175724 17 298 0.0 3.2 0.00 0.00 0.00 52 1011.9
20260507175221 16 298 6.4 9.7 0.00 0.00 0.00 52 1012.2
20260507174719 15 320 1.6 6.4 0.00 0.00 0.00 53 1012.1
20260507174217 15 319 3.2 11.3 0.00 0.00 0.00 52 1012.3
20260507173714 15 257 6.4 11.3 0.00 0.00 0.00 53 1012.3
20260507173211 15 283 1.6 6.4 0.00 0.00 0.00 54 1012.4
20260507172707 15 324 3.2 12.9 0.00 0.00 0.00 53 1012.5
20260507172204 15 316 3.2 6.4 0.00 0.00 0.00 52 1012.5
20260507171704 16 298 0.0 3.2 0.00 0.00 0.00 54 1012.7
20260507171202 16 299 1.6 6.4 0.00 0.00 0.00 55 1012.6
20260507170659 15 302 3.2 9.7 0.00 0.00 0.00 54 1012.9
20260507170156 15 292 4.8 9.7 0.00 0.00 0.00 54 1012.9
20260507165651 15 296 4.8 6.4 0.00 0.00 0.00 54 1013.0
20260507165148 15 345 3.2 4.8 0.00 0.00 0.00 54 1013.2
20260507164644 15 326 4.8 4.8 0.00 0.00 0.00 53 1013.0
20260507164141 17 307 3.2 6.4 0.00 0.00 0.00 51 1013.2
20260507163638 18 319 4.8 6.4 0.00 0.00 0.00 49 1013.2
20260507163136 16 316 0.0 3.2 0.00 0.00 0.00 55 1013.0
20260507162632 16 356 3.2 11.3 0.00 0.00 0.00 52 1013.3
20260507162128 16 357 3.2 6.4 0.00 0.00 0.00 56 1013.4
20260507161624 15 357 1.6 11.3 0.00 0.00 0.00 56 1013.5
20260507161121 15 358 4.8 6.4 0.00 0.00 0.00 57 1013.4
20260507160617 14 350 1.6 3.2 0.00 0.00 0.00 59 1013.6
20260507160114 14 350 1.6 6.4 0.00 0.00 0.00 59 1013.8
20260507155609 13 351 1.6 4.8 0.00 0.00 0.00 59 1013.8
20260507155107 13 351 0.0 1.6 0.00 0.00 0.00 59 1013.9
20260507154603 14 351 1.6 3.2 0.00 0.00 0.00 62 1013.9
20260507154100 13 351 1.6 3.2 0.00 0.00 0.00 61 1014.0
20260507153557 13 350 1.6 6.4 0.00 0.00 0.00 62 1014.0
20260507153054 13 341 0.0 4.8 0.00 0.00 0.00 60 1014.0
20260507152550 13 336 4.8 6.4 0.00 0.00 0.00 61 1014.2
20260507152046 14 9 6.4 11.3 0.00 0.00 0.00 60 1013.9
20260507151542 13 16 3.2 9.7 0.00 0.00 0.00 62 1014.0
20260507151039 14 34 3.2 6.4 0.00 0.00 0.00 61 1014.2
20260507150536 15 17 0.0 1.6 0.00 0.00 0.00 62 1014.3
20260507150033 14 17 0.0 1.6 0.00 0.00 0.00 66 1014.3
20260507145528 13 17 1.6 4.8 0.00 0.00 0.00 68 1014.5
20260507145026 13 17 1.6 4.8 0.00 0.00 0.00 72 1014.5
20260507144522 13 17 0.0 1.6 0.00 0.00 0.00 71 1014.5
20260507144020 13 17 1.6 3.2 0.00 0.00 0.00 73 1014.7
20260507143517 12 17 0.0 3.2 0.00 0.00 0.00 74 1014.6
20260507143014 12 17 1.6 3.2 0.00 0.00 0.00 74 1014.7
20260507142509 12 17 0.0 3.2 0.00 0.00 0.00 76 1015.0
20260507142007 11 17 0.0 1.6 0.00 0.00 0.00 78 1014.8
20260507141502 11 17 0.0 1.6 0.00 0.00 0.00 80 1015.1
20260507140959 11 17 0.0 1.6 0.00 0.00 0.00 81 1015.3
20260507140456 10 17 0.0 1.6 0.00 0.00 0.00 82 1015.4
20260507135953 10 17 1.6 1.6 0.00 0.00 0.00 83 1015.2
20260507135450 10 17 3.2 4.8 0.00 0.00 0.00 84 1015.2
20260507134947 10 17 1.6 1.6 0.00 0.00 0.00 84 1015.4
20260507134444 10 17 1.6 3.2 0.00 0.00 0.00 84 1015.3
20260507133940 10 17 1.6 1.6 0.00 0.00 0.00 85 1015.4
20260507133436 10 17 1.6 3.2 0.00 0.00 0.00 85 1015.6
20260507132935 10 17 0.0 1.6 0.00 0.00 0.00 85 1015.5
20260507132431 10 17 0.0 1.6 0.00 0.00 0.00 85 1015.7
20260507131927 10 17 0.0 0.0 0.00 0.00 0.00 86 1015.9
20260507131424 10 17 0.0 0.0 0.00 0.00 0.00 86 1015.7
20260507130921 10 17 0.0 0.0 0.00 0.00 0.00 86 1015.7
20260507130418 10 17 0.0 1.6 0.00 0.00 0.00 85 1015.7
20260507125917 9 17 0.0 1.6 0.00 0.00 0.00 85 1015.6
20260507125415 9 17 0.0 0.0 0.00 0.00 0.00 85 1015.8
20260507124912 9 17 0.0 0.0 0.00 0.00 0.00 85 1015.9
20260507124407 9 17 0.0 0.0 0.00 0.00 0.00 86 1015.6
20260507123906 9 17 0.0 1.6 0.00 0.00 0.00 86 1015.5
20260507123403 10 17 0.0 1.6 0.00 0.00 0.00 85 1015.6
20260507122859 10 17 0.0 0.0 0.00 0.00 0.00 86 1015.5
20260507122355 10 17 0.0 1.6 0.00 0.00 0.00 86 1015.3
20260507121851 10 17 0.0 0.0 0.00 0.00 0.00 85 1015.5
20260507121347 10 17 0.0 1.6 0.00 0.00 0.00 85 1015.3
20260507120844 10 17 1.6 1.6 0.00 0.00 0.00 86 1015.3
20260507120340 10 17 0.0 0.0 0.00 0.00 0.00 86 1015.1
20260507115836 10 17 0.0 0.0 0.00 0.00 0.00 86 1015.2
20260507115327 10 17 0.0 0.0 0.00 0.00 0.00 87 1015.1
20260507114822 9 17 0.0 0.0 0.00 0.00 0.00 86 1015.1
20260507114320 9 17 0.0 0.0 0.00 0.00 0.00 87 1015.1
20260507113817 9 17 0.0 0.0 0.00 0.00 0.00 87 1015.1
20260507113314 9 17 0.0 0.0 0.00 0.00 0.00 87 1014.8
20260507112812 9 17 0.0 0.0 0.00 0.00 0.00 87 1014.7
20260507112308 9 17 0.0 0.0 0.00 0.00 0.00 87 1014.7
20260507111807 9 17 0.0 0.0 0.00 0.00 0.00 87 1014.7
20260507111303 9 17 0.0 0.0 0.00 0.00 0.00 88 1014.8
20260507110759 9 17 0.0 0.0 0.00 0.00 0.00 88 1015.0
20260507110255 9 17 0.0 0.0 0.00 0.00 0.00 88 1014.6
20260507105752 9 17 0.0 0.0 0.00 0.00 0.00 88 1014.6
20260507105248 9 17 0.0 0.0 0.00 0.00 0.00 88 1014.5
20260507104745 9 17 0.0 0.0 0.00 0.00 0.00 88 1014.4
20260507104242 9 17 0.0 0.0 0.00 0.00 0.00 89 1014.6
20260507103738 9 17 0.0 0.0 0.00 0.00 0.00 88 1014.4
20260507103234 9 17 0.0 0.0 0.00 0.00 0.00 88 1014.4
20260507102731 9 17 0.0 0.0 0.00 0.00 0.00 89 1014.8
20260507102228 9 17 0.0 0.0 0.00 0.00 0.00 89 1014.4
20260507101724 9 17 0.0 0.0 0.00 0.00 0.00 89 1014.5
20260507101219 9 17 0.0 0.0 0.00 0.00 0.00 89 1014.5
20260507100716 9 17 0.0 0.0 0.00 0.00 0.00 90 1014.5
20260507100214 9 17 0.0 0.0 0.00 0.00 0.00 90 1014.5
20260507095712 9 17 0.0 0.0 0.00 0.00 0.00 90 1014.3
20260507095208 9 17 0.0 0.0 0.00 0.00 0.00 90 1014.3
20260507094706 9 17 0.0 0.0 0.00 0.00 0.00 90 1014.5
20260507094202 9 17 0.0 0.0 0.00 0.00 0.00 90 1014.2
20260507093659 9 17 0.0 0.0 0.00 0.00 0.00 90 1014.3
20260507093158 8 17 0.0 0.0 0.00 0.00 0.00 90 1014.2
20260507092654 9 17 0.0 0.0 0.00 0.00 0.00 90 1014.3
20260507092151 9 17 0.0 0.0 0.00 0.00 0.00 90 1014.3
20260507091647 9 17 0.0 0.0 0.00 0.00 0.00 90 1014.3
20260507091143 9 17 0.0 0.0 0.00 0.00 0.00 90 1014.3
20260507090639 9 17 0.0 0.0 0.00 0.00 0.00 90 1014.4
20260507090137 9 17 0.0 0.0 0.00 0.00 0.00 90 1014.1
20260507085633 9 17 0.0 0.0 0.00 0.00 0.00 90 1014.3
20260507085130 9 17 0.0 0.0 0.00 0.00 0.00 90 1014.4
20260507084627 9 17 0.0 0.0 0.00 0.00 0.00 90 1014.2
20260507084124 9 17 0.0 0.0 0.00 0.00 0.00 90 1013.9
20260507083620 9 17 0.0 0.0 0.00 0.00 0.00 90 1014.0
20260507083117 9 17 0.0 1.6 0.00 0.00 0.00 90 1013.7
20260507082613 9 17 0.0 0.0 0.00 0.00 0.00 90 1014.2
20260507082110 10 17 0.0 0.0 0.00 0.00 0.00 90 1014.1
20260507081606 10 17 0.0 0.0 0.00 0.00 0.00 90 1014.3
20260507081103 10 17 0.0 0.0 0.00 0.00 0.00 90 1014.1
20260507080559 10 17 0.0 0.0 0.00 0.00 0.00 89 1014.3
20260507080056 10 17 0.0 0.0 0.00 0.00 0.00 89 1014.2
20260507075550 10 17 0.0 0.0 0.00 0.00 0.00 89 1014.3
20260507075047 10 17 0.0 0.0 0.00 0.00 0.00 89 1014.5
20260507074544 10 17 0.0 0.0 0.00 0.00 0.00 89 1014.3
20260507074043 10 17 0.0 0.0 0.00 0.00 0.00 90 1014.3
20260507073538 10 17 0.0 0.0 0.00 0.00 0.00 90 1014.1
20260507073035 10 17 0.0 1.6 0.00 0.00 0.00 90 1013.9
20260507072533 10 17 1.6 1.6 0.00 0.00 0.00 90 1014.0
20260507072030 10 17 0.0 1.6 0.00 0.00 0.00 90 1014.2
20260507071527 10 17 0.0 3.2 0.00 0.00 0.00 90 1014.1
20260507071024 10 17 1.6 3.2 0.00 0.00 0.00 90 1014.2
20260507070521 10 17 0.0 1.6 0.00 0.00 0.00 90 1013.9
20260507070018 10 17 0.0 0.0 0.00 0.00 0.00 90 1014.1
20260507065514 10 17 0.0 0.0 0.00 0.00 0.00 90 1014.1
20260507065011 10 17 1.6 3.2 0.00 0.00 0.00 89 1013.8
20260507064509 10 17 1.6 3.2 0.00 0.00 0.00 90 1014.0
20260507064007 10 17 0.0 1.6 0.00 0.00 0.00 89 1013.9
20260507063504 10 17 1.6 3.2 0.00 0.00 0.00 89 1013.9
20260507063001 10 17 1.6 3.2 0.00 0.00 0.00 89 1014.0
20260507062458 11 17 1.6 3.2 0.00 0.00 0.00 88 1014.1
20260507061955 11 17 3.2 4.8 0.00 0.00 0.00 88 1013.9
20260507061453 11 17 1.6 3.2 0.00 0.00 0.00 88 1014.1
20260507060951 11 17 1.6 3.2 0.00 0.00 0.00 87 1013.9
20260507060448 11 17 0.0 1.6 0.00 0.00 0.00 87 1013.9
20260507055944 11 17 1.6 3.2 0.00 0.00 0.00 87 1014.0
20260507055440 11 17 1.6 3.2 0.00 0.00 0.00 87 1014.1
20260507054937 12 17 1.6 3.2 0.00 0.00 0.00 86 1014.1
20260507054433 12 17 3.2 4.8 0.00 0.00 0.00 86 1014.4
20260507053930 12 17 1.6 1.6 0.00 0.00 0.00 86 1014.3
20260507053422 12 17 0.0 0.0 0.00 0.00 0.00 86 1014.1
20260507052921 12 17 1.6 1.6 0.00 0.00 0.00 85 1014.2
20260507052418 12 17 1.6 3.2 0.00 0.00 0.00 85 1014.3
20260507051915 12 17 1.6 3.2 0.00 0.00 0.00 85 1013.9
20260507051413 13 17 3.2 4.8 0.00 0.00 0.00 84 1013.8
20260507050909 13 17 3.2 4.8 0.00 0.00 0.00 85 1013.9
20260507050400 13 17 0.0 1.6 0.00 0.00 0.00 85 1013.9
20260507045857 13 17 0.0 1.6 0.00 0.00 0.00 85 1013.9
20260507045353 13 17 0.0 1.6 0.00 0.00 0.00 85 1013.6
20260507044851 13 17 1.6 3.2 0.00 0.00 0.00 84 1013.7
20260507044347 13 17 1.6 3.2 0.00 0.00 0.00 85 1013.7
20260507043843 13 17 1.6 1.6 0.00 0.00 0.00 84 1013.5
20260507043339 13 17 3.2 4.8 0.00 0.00 0.00 85 1013.7
20260507042830 13 16 0.0 1.6 0.00 0.00 0.00 85 1013.9
20260507042326 13 16 0.0 1.6 0.00 0.00 0.00 84 1013.6
20260507041823 14 16 1.6 1.6 0.00 0.00 0.00 84 1013.3
20260507041319 14 16 0.0 1.6 0.00 0.00 0.00 84 1013.0
20260507040817 14 16 0.0 1.6 0.00 0.00 0.00 83 1013.1
20260507040313 14 16 4.8 6.4 0.00 0.00 0.00 83 1013.2
20260507035809 14 17 1.6 3.2 0.00 0.18 0.18 83 1012.9
20260507035306 14 17 4.8 4.8 0.00 0.18 0.18 83 1013.0
20260507034803 14 17 0.0 3.2 0.00 0.18 0.18 83 1012.4
20260507034259 14 338 3.2 4.8 0.00 0.18 0.18 82 1012.7
20260507033757 15 338 0.0 0.0 0.00 0.18 0.18 81 1013.5
20260507033255 15 338 1.6 1.6 0.00 0.18 0.18 80 1013.5
20260507032751 15 338 1.6 1.6 0.00 0.18 0.18 80 1014.1
20260507032247 15 338 1.6 3.2 0.00 0.18 0.18 80 1014.0
20260507031744 15 338 1.6 1.6 0.00 0.18 0.18 80 1014.1
20260507031241 15 338 1.6 1.6 0.00 0.18 0.18 80 1014.2
20260507030738 15 338 0.0 1.6 0.00 0.18 0.18 79 1013.8
20260507030235 15 338 1.6 3.2 0.00 0.18 0.18 80 1013.9
20260507025732 15 321 3.2 3.2 0.00 0.18 0.18 79 1014.1
20260507025229 15 282 3.2 3.2 0.00 0.18 0.18 79 1013.8
20260507024728 15 281 0.0 1.6 0.00 0.18 0.18 80 1013.4
20260507024224 15 281 1.6 3.2 0.00 0.18 0.18 79 1013.0